Regional Weather Roundup
Issued by NWS

Home | Current Version | Previous Version | Text Only | Print | Product List | Glossary On
Versions: 1 2 3 4 5 6 7 8 9 10 11 12 13 14 15 16 17 18 19 20 21 22 23 24 25 26 27 28 29 30 31 32 33 34 35 36 37 38 39 40 41 42 43 44 45 46 47 48 49 50
000
ASPQ40 PGUM 200912
RWRPQ
WEATHER ROUNDUP FOR THE MARIANAS AND MICRONESIA
NATIONAL WEATHER SERVICE TIYAN GU
700 PM CHST SAT JAN 20 2018

GUZ001>004-201000-
MARIANA ISLANDS-

CITY           SKY/WX    TMP DP  RH WIND       PRES   REMARKS
GUAM AIRPORT   PTCLDY    81  75  83 NE12      29.85R
ANDERSEN AFB   CLOUDY    79  72  78 NE14G23   29.85R
ROTA AIRPORT   PTCLDY    79  72  78 NE12      29.85R
TINIAN AP      PTCLDY    79  70  73 NE10      29.84R
SAIPAN AP      MOCLDY    81  73  78 NE10      29.85R

$$

PMZ161-201000-
REPUBLIC OF PALAU-

CITY           SKY/WX    TMP DP  RH WIND       PRES   REMARKS
KOROR AP       CLOUDY    81  75  83 E6        29.71R
KOROR WSO      CLOUDY    84  75  74 E7        29.72R HX  92

$$

PMZ171>174-201000-
FEDERATED STATES OF MICRONESIA-

CITY           SKY/WX    TMP DP  RH WIND       PRES   REMARKS
YAP AIRPORT    MOCLDY    81  75  83 E8        29.74S
CHUUK AP       CLOUDY    77  75  94 VRB3      29.74R
POHNPEI AP     CLOUDY    77  75  94 SE3       29.78R
POHNPEI WSO    CLOUDY    77  75  94 E5        29.81R
KOSRAE AP      NOT AVBL

$$

PMZ181-201000-
REPUBLIC OF THE MARSHALL ISLANDS-

CITY           SKY/WX    TMP DP  RH WIND       PRES   REMARKS
KWAJALEIN AP   HVY RAIN  79  75  89 E14G23    29.80R
MAJURO AP      NOT AVBL
MAJURO WSO     MOCLDY    82  77  83 SE13      29.75R HX  91

$$




USA.gov is the U.S. government's official web portal to all federal, state and local government web resources and services.